GGSE 4

导读

GGSE-4(重力梯度稳定试验卫星4)是美国于1967年5月31日发射的技术试验卫星,隶属于美军引力梯度稳定试验项目。该卫星旨在验证重力梯度稳定技术在长寿命航天器姿态控制中的可行性,通过展开重力梯度杆实现被动姿态稳定,降低对主动推进系统的依赖。作为早期太空技术探索的重要一步,GGSE-4为后续美国通信、导航卫星的姿态控制技术发展积累了关键试验数据,推动了现代卫星设计的成熟。

基本信息
目录编号:
2828
目录名称:
GGSE 4
国际标识:
1967-053C
轨道中心:
EARTH
卫星名称:
GGSE 4
卫星全名:
--
卫星状态:
在轨 (已飞行21653 天)
发射日期:
1967-05-31 UTC
国别 :
美国 (US)
星等 :
--
该卫星已列入 空间交会检测服务 Space Conjunction Data Service (SCDS) ,当前飞行风险评估等级: 无高风险
轨道信息
数据来源 国际轨道数据 AOE轨道数据
星历时间 2026-09-10T23:40:24+0800
15小时前
查看轨道信息
2026-09-10T22:00:00+0800
17小时前
查看轨道信息
半长轴 7278.514km 7278.513km
偏心率 0.0005663 0.0005718
轨道倾角 69.969° 69.970°
近地点辐角 41.010° 41.636°
升交点赤经 239.328° 239.478°
平近点角 319.143° 327.713°
近地点 896.255km 896.214km
远地点 904.499km 904.538km
周期 102.997分钟 102.997分钟
每日圈数 13.981015 13.981019
详细信息
使用方式:
暂无
2D轨道图
3D轨道图
轨道高度分析图
轨道倾角分析图
轨道综合分析图
查看轨道综合分析图
交会数据列表
事件ID 空间交会对象 最接近时刻(TCA) 交会距离 交会风险概率(CRP) 交会风险指数(CRI) 操作
CDM_260912-044500-282806-119727
GGSE 4 (2828)
2026-09-12T
04:45:25+0000
1.197 km
极远距离
1.193275E-5 中风险 0.57
CDM_260911-234400-282801-377728
GGSE 4 (2828)
IRAS (13777)
2026-09-11T
23:44:10+0000
2.539 km
极远距离
1.688452E-6 低风险 0.4
与全量物体交会距离演化趋势
与全量物体交会风险概率演化趋势